This demonstration page uses our WeatherBlox Daily Observations layout. Learn more.

Left ArrowRight Arrow

Hourly Observations for February 8, 2016

Temp ( °F °C ) Dew Point ( °F °C ) Humidity (%) Winds ( mph kmh ) Pressure ( in mb ) Visibility ( mi km ) Precip ( " mm )
12:53 am 00:53 Clear 67 19.4 36 2.2 32 32 NNW 8 13 30.30 1026 10 16 0.00 0.00
1:53 am 01:53 Clear 66 18.9 36 2.2 33 33 NNW 7 11 30.30 1026 10 16 0.00 0.00
2:53 am 02:53 Clear 66 18.9 35 1.7 32 32 N 13 20 30.28 1026 10 16 0.00 0.00
3:53 am 03:53 Clear 66 18.9 34 1.1 30 30 N 9 15 30.28 1026 10 16 0.00 0.00
4:53 am 04:53 Clear 66 18.9 33 0.6 29 29 N 12 19 30.28 1025 10 16 0.00 0.00
5:53 am 05:53 Clear 65 18.3 33 0.6 31 31 N 9 15 30.29 1026 10 16 0.00 0.00
6:53 am 06:53 Clear 63 17.2 34 1.1 34 34 N 8 13 30.29 1026 10 16 0.00 0.00
7:53 am 07:53 Sunny 65 18.3 34 1.1 32 32 N 8 13 30.29 1026 10 16 0.00 0.00
8:53 am 08:53 Sunny 69 20.6 34 1.1 27 27 N 9 15 30.29 1026 10 16 0.00 0.00
9:53 am 09:53 Sunny 72 22.2 33 0.6 24 24 N 10 17 30.28 1026 10 16 0.00 0.00
10:53 am 10:53 Sunny 75 23.9 34 1.1 22 22 N 8 13 30.28 1026 10 16 0.00 0.00
11:53 am 11:53 Sunny 77 25 36 2.2 23 23 N 9 15 30.26 1025 10 16 0.00 0.00
12:53 pm 12:53 Sunny 79 26.1 36 2.2 21 21 N 13 20 30.23 1024 10 16 0.00 0.00
1:53 pm 13:53 Sunny 81 27.2 35 1.7 19 19 N 13 20 30.20 1023 10 16 0.00 0.00
2:53 pm 14:53 Sunny 81 27.2 37 2.8 21 21 N 16 26 30.17 1022 10 16 0.00 0.00
3:53 pm 15:53 Sunny 82 27.8 36 2.2 19 19 N 10 17 30.16 1021 10 16 0.00 0.00
4:53 pm 16:53 Sunny 81 27.2 34 1.1 18 18 N 8 13 30.14 1021 10 16 0.00 0.00
5:53 pm 17:53 Clear 77 25 34 1.1 21 21 NNW 7 11 30.15 1021 10 16 0.00 0.00
6:53 pm 18:53 Clear 74 23.3 34 1.1 23 23 N 9 15 30.16 1021 10 16 0.00 0.00
7:53 pm 19:53 Clear 71 21.7 34 1.1 26 26 N 8 13 30.17 1022 10 16 0.00 0.00
8:53 pm 20:53 Clear 69 20.6 34 1.1 27 27 NNW 6 9 30.18 1022 10 16 0.00 0.00
9:53 pm 21:53 Clear 67 19.4 34 1.1 30 30 N 7 11 30.18 1022 10 16 0.00 0.00
10:53 pm 22:53 Clear 55 12.8 39 3.9 55 55 Calm 30.20 1023 10 16 0.00 0.00
11:53 pm 23:53 Clear 53 11.7 39 3.9 59 59 Calm 30.22 1023 10 16 0.00 0.00

Powered by AerisWeather